Hourly Weather Holnevichi

Today, 12 April, Monday

Time Temperature Precipitation Wind Pressure Humidity
00:00 +8°C° 0 mm 3 mps 755 mmHg 75%
01:00 +7°C° 0 mm 3 mps 755 mmHg 76%
02:00 +7°C° 0 mm 3 mps 755 mmHg 76%
03:00 +5°C° 0 mm 3 mps 755 mmHg 77%
04:00 +5°C° 0 mm 3 mps 754 mmHg 78%
05:00 +5°C° 0 mm 3 mps 754 mmHg 79%
06:00 +7°C° 0 mm 3 mps 754 mmHg 74%
07:00 +7°C° 0 mm 4 mps 754 mmHg 69%
08:00 +10°C° 0 mm 4 mps 754 mmHg 64%
09:00 +10°C° 0 mm 5 mps 754 mmHg 58%
10:00 +13°C° 0 mm 5 mps 753 mmHg 52%
11:00 +14°C° 0 mm 6 mps 753 mmHg 46%
12:00 +15°C° 0 mm 5 mps 753 mmHg 43%
13:00 +15°C° 0 mm 5 mps 752 mmHg 41%
14:00 +15°C° 0 mm 5 mps 752 mmHg 38%
15:00 +15°C° 0 mm 5 mps 751 mmHg 41%
16:00 +14°C° 0 mm 4 mps 751 mmHg 44%
17:00 +14°C° 0 mm 4 mps 751 mmHg 47%
18:00 +12°C° 0 mm 4 mps 751 mmHg 57%
19:00 +11°C° 0 mm 4 mps 751 mmHg 66%
20:00 +8°C° 0 mm 4 mps 751 mmHg 76%
21:00 +8°C° 0 mm 4 mps 751 mmHg 82%
22:00 +9°C° 0 mm 3 mps 751 mmHg 88%
23:00 +8°C° 0 mm 3 mps 751 mmHg 94%

Tomorrow, 13 April, Tuesday

Time Temperature Precipitation Wind Pressure Humidity
00:00 +8°C° 0 mm 2 mps 750 mmHg 95%
01:00 +7°C° 0 mm 2 mps 750 mmHg 95%
02:00 +7°C° 0 mm 2 mps 750 mmHg 96%
03:00 +6°C° 0 mm 2 mps 750 mmHg 95%
04:00 +7°C° 0 mm 1 mps 750 mmHg 94%
05:00 +7°C° 0 mm 1 mps 750 mmHg 93%
06:00 +8°C° 0 mm 1 mps 750 mmHg 88%
07:00 +10°C° 0 mm 1 mps 750 mmHg 82%
08:00 +10°C° 0 mm 2 mps 750 mmHg 76%
09:00 +12°C° 0 mm 2 mps 750 mmHg 71%
10:00 +14°C° 0 mm 2 mps 750 mmHg 65%
11:00 +15°C° 0 mm 2 mps 750 mmHg 59%
12:00 +15°C° 0 mm 2 mps 749 mmHg 63%
13:00 +15°C° 0 mm 2 mps 749 mmHg 67%
14:00 +14°C° 0 mm 2 mps 749 mmHg 71%
15:00 +14°C° 0.1 mm 2 mps 749 mmHg 76%
16:00 +13°C° 0.1 mm 2 mps 749 mmHg 81%
17:00 +12°C° 0.1 mm 1 mps 748 mmHg 86%
18:00 +12°C° 0.4 mm 1 mps 748 mmHg 89%
19:00 +12°C° 0.4 mm 1 mps 748 mmHg 92%
20:00 +12°C° 0.4 mm 1 mps 748 mmHg 95%
21:00 +10°C° 0.5 mm 2 mps 748 mmHg 96%
22:00 +10°C° 0.5 mm 2 mps 747 mmHg 96%
23:00 +10°C° 0.5 mm 2 mps 747 mmHg 97%

Day after tomorrow, 14 April, Wednesday

Time Temperature Precipitation Wind Pressure Humidity
00:00 +10°C° 0.1 mm 2 mps 747 mmHg 97%
01:00 +10°C° 0.1 mm 2 mps 746 mmHg 97%
02:00 +10°C° 0.1 mm 2 mps 746 mmHg 97%
03:00 +10°C° 0.1 mm 2 mps 746 mmHg 96%
04:00 +9°C° 0.1 mm 3 mps 746 mmHg 96%
05:00 +9°C° 0.1 mm 3 mps 746 mmHg 96%
06:00 +9°C° 0 mm 3 mps 746 mmHg 94%
07:00 +10°C° 0 mm 3 mps 746 mmHg 92%
08:00 +10°C° 0 mm 3 mps 746 mmHg 89%
09:00 +11°C° 0.1 mm 3 mps 746 mmHg 84%
10:00 +11°C° 0.1 mm 3 mps 746 mmHg 80%
11:00 +12°C° 0.1 mm 4 mps 746 mmHg 75%
12:00 +12°C° 0.2 mm 3 mps 746 mmHg 72%
13:00 +12°C° 0.2 mm 3 mps 746 mmHg 70%
14:00 +13°C° 0.2 mm 3 mps 746 mmHg 68%
15:00 +13°C° 0.1 mm 3 mps 746 mmHg 68%
16:00 +14°C° 0.1 mm 2 mps 746 mmHg 69%
17:00 +14°C° 0.1 mm 2 mps 746 mmHg 69%
18:00 +13°C° 0.1 mm 2 mps 746 mmHg 75%
19:00 +12°C° 0.1 mm 2 mps 746 mmHg 80%
20:00 +9°C° 0.1 mm 2 mps 746 mmHg 86%
21:00 +9°C° 0 mm 2 mps 746 mmHg 88%
22:00 +9°C° 0 mm 2 mps 746 mmHg 89%
23:00 +9°C° 0 mm 2 mps 746 mmHg 91%

15 April, Thursday

Time Temperature Precipitation Wind Pressure Humidity
00:00 +10°C° 0.1 mm 1 mps 746 mmHg 91%
01:00 +10°C° 0.1 mm 1 mps 746 mmHg 91%
02:00 +10°C° 0.1 mm 1 mps 746 mmHg 91%
03:00 +10°C° 0.1 mm 1 mps 746 mmHg 92%
04:00 +9°C° 0.1 mm 1 mps 746 mmHg 93%
05:00 +9°C° 0.1 mm 1 mps 746 mmHg 94%
06:00 +9°C° 0.2 mm 1 mps 746 mmHg 93%
07:00 +10°C° 0.2 mm 1 mps 746 mmHg 93%
08:00 +10°C° 0.2 mm 1 mps 746 mmHg 92%
09:00 +10°C° 0.2 mm 1 mps 746 mmHg 88%
10:00 +11°C° 0.2 mm 1 mps 746 mmHg 84%
11:00 +10°C° 0.2 mm 2 mps 747 mmHg 81%
12:00 +12°C° 0.1 mm 2 mps 747 mmHg 78%
13:00 +12°C° 0.1 mm 2 mps 747 mmHg 75%
14:00 +12°C° 0.1 mm 3 mps 746 mmHg 72%
15:00 +11°C° 0 mm 3 mps 746 mmHg 74%
16:00 +11°C° 0 mm 3 mps 746 mmHg 75%
17:00 +11°C° 0 mm 3 mps 746 mmHg 76%
18:00 +10°C° 0 mm 3 mps 747 mmHg 82%
19:00 +8°C° 0 mm 3 mps 747 mmHg 87%
20:00 +7°C° 0 mm 3 mps 747 mmHg 92%
21:00 +7°C° 0 mm 3 mps 747 mmHg 93%
22:00 +7°C° 0 mm 3 mps 747 mmHg 94%
23:00 +7°C° 0 mm 3 mps 747 mmHg 95%

16 April, Friday

Time Temperature Precipitation Wind Pressure Humidity
00:00 +7°C° 0 mm 3 mps 747 mmHg 95%
01:00 +7°C° 0 mm 3 mps 746 mmHg 95%
02:00 +7°C° 0 mm 3 mps 746 mmHg 95%
03:00 +7°C° 0 mm 3 mps 746 mmHg 96%
04:00 +7°C° 0 mm 3 mps 746 mmHg 97%
05:00 +7°C° 0 mm 3 mps 746 mmHg 97%
06:00 +8°C° 0.1 mm 3 mps 746 mmHg 96%
07:00 +8°C° 0.1 mm 3 mps 747 mmHg 94%
08:00 +8°C° 0.1 mm 4 mps 747 mmHg 92%
09:00 +9°C° 0 mm 5 mps 747 mmHg 86%
10:00 +10°C° 0 mm 5 mps 747 mmHg 80%
11:00 +11°C° 0 mm 6 mps 747 mmHg 74%
12:00 +13°C° 0 mm 6 mps 747 mmHg 71%
13:00 +14°C° 0 mm 7 mps 747 mmHg 67%
14:00 +15°C° 0 mm 7 mps 747 mmHg 63%
15:00 +14°C° 0.3 mm 7 mps 747 mmHg 67%
16:00 +14°C° 0.3 mm 7 mps 747 mmHg 70%
17:00 +12°C° 0.3 mm 7 mps 748 mmHg 73%
18:00 +11°C° 0.1 mm 7 mps 748 mmHg 75%
19:00 +11°C° 0.1 mm 7 mps 748 mmHg 76%
20:00 +10°C° 0.1 mm 7 mps 749 mmHg 77%
21:00 +10°C° 0 mm 7 mps 749 mmHg 78%
22:00 +9°C° 0 mm 7 mps 749 mmHg 79%
23:00 +8°C° 0 mm 7 mps 750 mmHg 80%

17 April, Saturday

Time Temperature Precipitation Wind Pressure Humidity
00:00 +8°C° 0 mm 7 mps 750 mmHg 80%
01:00 +7°C° 0 mm 6 mps 750 mmHg 81%
02:00 +5°C° 0 mm 6 mps 751 mmHg 81%
03:00 +5°C° 0 mm 6 mps 751 mmHg 80%
04:00 +4°C° 0 mm 6 mps 751 mmHg 79%
05:00 +4°C° 0 mm 6 mps 752 mmHg 78%
06:00 +4°C° 0 mm 6 mps 752 mmHg 76%
07:00 +4°C° 0 mm 6 mps 753 mmHg 75%
08:00 +4°C° 0 mm 6 mps 753 mmHg 74%
09:00 +7°C° 0 mm 6 mps 753 mmHg 68%
10:00 +9°C° 0 mm 6 mps 754 mmHg 63%
11:00 +10°C° 0 mm 7 mps 754 mmHg 57%
12:00 +11°C° 0 mm 7 mps 754 mmHg 55%
13:00 +12°C° 0 mm 7 mps 755 mmHg 53%
14:00 +12°C° 0 mm 7 mps 755 mmHg 51%
15:00 +13°C° 0 mm 6 mps 755 mmHg 52%
16:00 +13°C° 0 mm 6 mps 755 mmHg 52%
17:00 +13°C° 0 mm 5 mps 755 mmHg 52%
18:00 +10°C° 0 mm 5 mps 756 mmHg 55%
19:00 +10°C° 0 mm 4 mps 756 mmHg 59%
20:00 +7°C° 0 mm 4 mps 757 mmHg 62%
21:00 +7°C° 0 mm 4 mps 757 mmHg 63%
22:00 +6°C° 0 mm 4 mps 757 mmHg 65%
23:00 +5°C° 0 mm 4 mps 758 mmHg 67%
Show more